www.pogodaiklimat.ru
ПОГОДА в Лос-Аламитосе
Время
и дата
13:55 21.09
14:55 21.09
15:55 21.09
16:55 21.09
17:55 21.09
18:55 21.09
19:55 21.09
20:55 21.09
21:55 21.09
22:55 21.09
01:55 22.09
02:55 22.09
03:55 22.09
04:55 22.09
05:55 22.09
06:55 22.09
07:55 22.09
08:55 22.09
09:55 22.09
10:55 22.09
11:55 22.09
12:55 22.09
13:55 22.09
14:55 22.09
15:55 22.09
16:55 22.09
17:55 22.09
18:36 22.09
18:46 22.09
18:55 22.09
19:55 22.09
20:55 22.09
21:55 22.09
22:55 22.09
23:55 22.09
00:55 23.09
01:55 23.09
02:55 23.09
03:15 23.09
03:55 23.09
04:05 23.09
04:25 23.09
04:35 23.09
04:55 23.09
05:00 23.09
05:55 23.09
06:55 23.09
07:55 23.09
Ветер
(напр.,м/с)
Видим. Явления Облачность Т
(С)
Тd
(С)
f
(%)
Тe
(С)
Тes
(С)
Комфортность P
(гПа)
Po
(гПа)
Тmin
(С)
Tmax
(С)
R
(мм)
R24
(мм)
S
(см)
ЮЗ 5 14 км 2/2 600 м +23.1 +15.1 61 +27 +33 душно 1012.5 1010.8
З 6 13 км 2/2 600 м +23.1 +14.1 57 +27 +30 душно 1012.1 1010.4
ЮЗ 4 13 км 2/2 600 м +22.9 +14.2 58 +26 +30 жарко 1012.1 1010.4 +21.3 +23.5
ЮЗ 5 13 км 2/2 600 м +21.6 +13.5 60 +24 +26 комфорт 1012.1 1010.4
З 3 13 км 5/5 600 m
[Ci]
+19.6 +13.3 67 +21 +22 комфорт 1012.5 1010.8
СЗ 4 16 км 2/2 1200 m
[Ci]
+18.2 +13.5 74 +18 +18 1012.8 1011.1
СЗ 3 16 км 2/2 1200 м +17.7 +13.4 76 +18 +18 1013.5 1011.8
С 2 16 км 2/2 1200 м +16.8 +13.1 79 +17 +17 1013.8 1012.1
штиль 0 16 км ясно +16.3 +13.4 83 +16 +16 1014.2 1012.4 +16.2 +22.9
штиль 0 16 км ясно +15.7 +13.4 86 +15 +15 1013.5 1011.8
штиль 0 16 км ясно +14.8 +12.8 88 +14 +14 1013.5 1011.8
штиль 0 16 км ясно +14.6 +12.5 87 +14 +14 1013.5 1011.8
штиль 0 16 км 2/2 1050 м +14.6 +13.3 92 +14 +14 1013.5 1011.8 +13.7 +16.3
штиль 0 16 км ясно +14.9 +12.9 88 +15 +15 1012.8 1011.1
штиль 0 13 км 8/2 360 m
[Ac Ci]
+13.3 +12.5 95 +13 +13 1013.5 1011.8
штиль 0 13 км 8/2 450 m
[Ac Ci]
+14.2 +12.9 92 +14 +14 1014.5 1012.8
штиль 0 13 км 8/2 450 m
[Ac Ci]
+17.5 +14.0 80 +17 +18 1014.8 1013.1
штиль 0 13 км 8/2 300 m
[Ac Ci]
+20.9 +14.8 68 +24 +26 комфорт 1015.9 1014.1
С 2 13 км 8/5 780 m
[Ac Ci]
+22.8 +14.4 59 +26 +29 жарко 1015.9 1014.1 +13.3 +22.8
ЮЗ 3 16 км 8/2 750 m
[Ac Ci]
+23.7 +14.7 57 +26 +31 жарко 1015.5 1013.8
ЮЗ 5 16 км 10/2 750 m
[Ac]
+22.7 +15.0 62 +27 +28 душно 1015.2 1013.5
ЮЗ 6 16 км 10/0 4800 m
[Ac]
+21.2 +14.8 67 +24 +26 комфорт 1015.5 1013.8
ЮЗ 4 16 км 10/0 4800 m
[Ac]
+21.0 +14.4 66 +24 +27 комфорт 1014.8 1013.1
штиль 0 16 км 10/0 4500 m
[Ac]
+20.9 +14.3 66 +23 +28 комфорт 1014.5 1012.8
Ю 2 16 км 10/0 5100 m
[Ac]
+20.6 +14.2 67 +24 +26 комфорт 1014.2 1012.4 +20.5 +24.1
Ю 4 16 км 10/0 4500 m
[Ac]
+19.6 +14.8 74 +21 +22 комфорт 1014.2 1012.4
штиль 0 16 км 10/0 4200 m
[Ac]
+19.1 +14.8 76 +20 +21 1013.5 1011.8
штиль 0 16 км слабый дождь 10/0 3900 m
[Ac As]
+19.0 +15.0 78 +20 +20 1013.8 1012.1
штиль 0 16 км 10/0 3900 m
[Ac]
+19.0 +15.0 78 +20 +20 1013.5 1011.8
штиль 0 16 км 10/0 4200 m
[Ac]
+19.0 +14.9 77 +20 +20 1013.5 1011.8
Ю 2 16 км 10/0 3900 m
[Ac]
+19.2 +14.9 76 +21 +21 комфорт 1014.2 1012.4
штиль 0 16 км 10/0 3300 m
[Ac]
+18.9 +15.0 78 +20 +20 1013.8 1012.1
С 2 16 км 10/0 3900 m
[Ac]
+18.8 +15.3 80 +20 +20 1013.8 1012.1 +18.7 +20.5
З 3 16 км 8/0 3300 m
[Ac]
+17.7 +14.8 83 +18 +18 1014.1 1012.4
СЗ 2 16 км 10/0 3300 m
[Ac Ci]
+17.1 +14.9 87 +17 +17 1013.8 1012.1
С 2 16 км 10/0 5100 m
[Ac]
+17.8 +14.9 83 +18 +18 1014.2 1012.4
штиль 0 16 км 5/2 600 m
[Ac]
+16.9 +14.7 87 +17 +17 1014.2 1012.4
штиль 0 16 км ясно +14.7 +13.7 94 +14 +14 1013.8 1012.1
штиль 0 16 км 8/8 420 м +15.0 +14.0 94 +15 +15 1013.8 1012.1
Ю 2 16 км 5/5 420 м +15.3 +14.3 94 +15 +15 1014.5 1012.8 +14.6 +18.7
штиль 0 16 км 5/5 450 м +14.0 +13.0 94 +14 +14 1014.5 1012.8
штиль 0 16 км 8/8 +14.0 +14.0 100 +13 +13 1014.8 1013.1
штиль 0 16 км 8/8 390 м +14.0 +14.0 100 +13 +13 1014.8 1013.1
В 2 16 км 10/10 +14.6 +14.0 96 +14 +14 1014.8 1013.1
В 2 16 км 5/5 360 м +15.0 +14.0 94 +15 +15 1014.8 1013.1
штиль 0 16 км 2/2 510 м +14.8 +14.2 96 +14 +14 1015.5 1013.8
нст 3 16 км 2/2 510 м +18.3 +15.0 81 +19 +19 1015.2
нст 3 16 км 5/5 510 м +19.8 +15.0 74 +22 +23 комфорт 1015.5
Местоположение метеостанции Los Alamitos Army Airfield: широта 33.7833 долгота -118.0500 высота над уровнем моря 11 м.
В архиве по умолчанию представлена погода в Лос-Аламитосе за последние 1-2 суток. Обновление информации о фактической погоде в базе происходит ежечасно! Архивные данные за месяц целиком и за предыдущие месяцы Вы можете получить, выбрав интересующий диапазон дат из раскрывающегося списка и нажав кнопку "Ввод!".
Внимание! Архив погоды МЕТАР в базе сайта по станциям, не включенным в климатический монитор, хранится не более 60 дней. Нет смысла пытаться выбрать более раннюю дату.
*Определитесь, кто Вы:
Внимание! Время в таблицах - местное (без учета летнего времени). Для получения всемирного времени необходимо вычесть поправку, которая равна -8 ч.
Смотрите также архив погоды в соседних городах и на ближайших метеорологических станциях:
Партнеры нашего сайта:      
Пояснения к столбцам:
  • Ветер - указаны скорость ветра в м/с - средняя за 10 мин, порывы в срок и между сроками (в фигурных скобках) и направление, откуда дует ветер: С - северный,
  • СВ - северо-восточный, В - восточный, ЮВ - юго-восточный, Ю - южный, ЮЗ - юго-западный, З - западный, СЗ - северо-западный.
  • Видимость - горизонтальная дальность видимости в метрах или километрах. При видимости от 1 до 10 км при отсутствии осадков обычно наблюдается дымка, при ухудшении видимости до 1 км и менее - туман. В сухую погоду видимость может ухудшаться дымом, пылью или мглою.
  • Явления - указаны атмосферные явления, наблюдавшиеся в срок или в последний час перед сроком; фигурными скобками обозначены явления, наблюдавшиеся между сроками (за 1-3 часа до срока); квадратными скобками обозначены град или гололедные отложения с указанием их диаметра в мм.
  • Облачность - указаны через наклонную черту общая и нижняя облачность в баллах и высота нижней границы облаков в метрах; квадратными скобками обозначены формы облаков: Ci - перистые, Cs - перисто-слоистые, Cc - перисто-кучевые, Ac - высококучевые, As - высокослоистые, Sc - слоисто-кучевые, Ns - слоисто-дождевые, Cu - кучевые, Cb - кучево-дождевые. Подробнее классификацию облаков см. в Атласе облаков (PDF).
  • T - Температура воздуха - температура, измеренная на высоте 2 м над землей.
  • Td - Температура точки росы - температура, при понижении до которой содержащийся в воздухе водяной пар достигнет насыщения.
  • f - Относительная влажность воздуха - влажноcть воздуха, измеренная на высоте 2 м над землей.
  • Te - Эффективная температура - температура, которую ощущает одетый по сезону человек в тени. Характеристика душности погоды. При расчете учитывается влияние влажности воздуха и скорости ветра на теплоощущения человека.
  • Tes - Эффективная температура на солнце - температура, которую ощущает человек, с поправкой на солнечный нагрев. Характеристика знойности погоды. Зависит от высоты солнца над горизонтом, облачности и скорости ветра. Ночью, в пасмурную погоду, а также при ветре 12 м/с и более поправка равна нулю.
  • P - Атмосферное давление - приведенное к уровню моря атмосферное давление.
  • Po - Атмосферное давление - измеренное на уровне метеостанции атмосферное давление.
  • Tmin - Минимальная температура - минимум температуры воздуха на высоте 2 м над землей.
  • Tmax - Максимальная температура - максимум температуры воздуха на высоте 2 м над землей.
  • R - Количество осадков - Количество выпавших осадков за период времени, мм. При наведении курсора мыши на число - период времени, за который выпало указанное количество осадков.
  • R24 - Количество осадков - Количество выпавших осадков за 24 часа, мм.
  • S - Снежный покров - Высота снежного покрова, см. При наведении курсора мыши на число - состояние снежного покрова и степень покрытия местности в баллах.